| time (UTC) | temp C | wind direction | speed KPH | gust KPH | rain 1hr cm | rain 24hr cm | rain mn cm | humidity % | barometer mb |
| 20260505091027 | 13 | 2 | 17.7 | 25.7 | 0.00 | 0.00 | 0.00 | 45 | 1009.7 |
| 20260505090027 | 14 | 10 | 19.3 | 27.4 | 0.00 | 0.00 | 0.00 | 45 | 1009.5 |
| 20260505085026 | 14 | 15 | 16.1 | 29.0 | 0.00 | 0.00 | 0.00 | 45 | 1009.7 |
| 20260505084024 | 14 | 10 | 14.5 | 25.7 | 0.00 | 0.00 | 0.00 | 44 | 1009.5 |
| 20260505083024 | 14 | 17 | 12.9 | 20.9 | 0.00 | 0.00 | 0.00 | 44 | 1009.6 |
| 20260505082025 | 14 | 23 | 14.5 | 24.1 | 0.00 | 0.00 | 0.00 | 44 | 1009.5 |
| 20260505081025 | 14 | 22 | 14.5 | 22.5 | 0.00 | 0.00 | 0.00 | 44 | 1009.5 |
| 20260505080024 | 15 | 18 | 12.9 | 20.9 | 0.00 | 0.00 | 0.00 | 44 | 1009.5 |
| 20260505075023 | 15 | 10 | 14.5 | 20.9 | 0.00 | 0.00 | 0.00 | 44 | 1009.5 |
| 20260505074019 | 15 | 7 | 16.1 | 24.1 | 0.00 | 0.00 | 0.00 | 44 | 1009.5 |
| 20260505073018 | 15 | 18 | 12.9 | 17.7 | 0.00 | 0.00 | 0.00 | 44 | 1009.3 |
| 20260505072019 | 15 | 355 | 16.1 | 22.5 | 0.00 | 0.00 | 0.00 | 44 | 1009.5 |
| 20260505071038 | 15 | 8 | 11.3 | 17.7 | 0.00 | 0.00 | 0.00 | 46 | 1009.3 |
| 20260505070017 | 15 | 0 | 11.3 | 17.7 | 0.00 | 0.00 | 0.00 | 46 | 1009.2 |
| 20260505065015 | 15 | 11 | 11.3 | 16.1 | 0.00 | 0.00 | 0.00 | 45 | 1009.2 |
| 20260505064016 | 16 | 35 | 8.0 | 14.5 | 0.00 | 0.00 | 0.00 | 44 | 1009.2 |
| 20260505063030 | 16 | 27 | 8.0 | 17.7 | 0.00 | 0.00 | 0.00 | 42 | 1009.2 |
| 20260505062028 | 16 | 19 | 8.0 | 20.9 | 0.00 | 0.00 | 0.00 | 42 | 1009.2 |
| 20260505061028 | 16 | 35 | 8.0 | 14.5 | 0.00 | 0.00 | 0.00 | 42 | 1009.2 |
| 20260505060027 | 16 | 44 | 4.8 | 11.3 | 0.00 | 0.00 | 0.00 | 43 | 1009.1 |
| 20260505055026 | 16 | 47 | 4.8 | 14.5 | 0.00 | 0.00 | 0.00 | 42 | 1009.1 |
| 20260505054027 | 16 | 86 | 3.2 | 8.0 | 0.00 | 0.00 | 0.00 | 41 | 1008.9 |
| 20260505053026 | 16 | 42 | 6.4 | 12.9 | 0.00 | 0.00 | 0.00 | 41 | 1009.0 |
| 20260505052046 | 17 | 24 | 8.0 | 14.5 | 0.00 | 0.00 | 0.00 | 41 | 1009.1 |
| 20260505051025 | 17 | 47 | 3.2 | 12.9 | 0.00 | 0.00 | 0.00 | 42 | 1009.1 |
| 20260505050108 | 18 | 29 | 9.7 | 14.5 | 0.00 | 0.00 | 0.00 | 38 | 1008.8 |
| 20260505041027 | 18 | 359 | 14.5 | 22.5 | 0.00 | 0.00 | 0.00 | 33 | 1008.3 |
| 20260505040026 | 18 | 8 | 14.5 | 24.1 | 0.00 | 0.00 | 0.00 | 33 | 1008.1 |
| 20260505035027 | 19 | 5 | 9.7 | 16.1 | 0.00 | 0.00 | 0.00 | 34 | 1008.1 |
| 20260505034028 | 19 | 355 | 11.3 | 17.7 | 0.00 | 0.00 | 0.00 | 33 | 1008.1 |
| 20260505033028 | 19 | 0 | 11.3 | 16.1 | 0.00 | 0.00 | 0.00 | 32 | 1007.9 |
| 20260505032027 | 20 | 0 | 9.7 | 16.1 | 0.00 | 0.00 | 0.00 | 31 | 1007.7 |
| 20260505031027 | 20 | 357 | 9.7 | 17.7 | 0.00 | 0.00 | 0.00 | 31 | 1007.7 |
| 20260505030027 | 20 | 327 | 6.4 | 16.1 | 0.00 | 0.00 | 0.00 | 30 | 1007.5 |
| 20260505025026 | 20 | 352 | 8.0 | 17.7 | 0.00 | 0.00 | 0.00 | 31 | 1007.6 |
| 20260505024026 | 21 | 326 | 4.8 | 12.9 | 0.00 | 0.00 | 0.00 | 31 | 1007.5 |
| 20260505023046 | 21 | 354 | 8.0 | 17.7 | 0.00 | 0.00 | 0.00 | 30 | 1007.3 |
| 20260505022027 | 21 | 332 | 9.7 | 20.9 | 0.00 | 0.00 | 0.00 | 29 | 1007.3 |
| 20260505021026 | 21 | 338 | 6.4 | 9.7 | 0.00 | 0.00 | 0.00 | 30 | 1007.4 |
| 20260505020023 | 21 | 316 | 4.8 | 9.7 | 0.00 | 0.00 | 0.00 | 31 | 1007.5 |
| 20260505015024 | 21 | 360 | 6.4 | 11.3 | 0.00 | 0.00 | 0.00 | 31 | 1007.3 |
| 20260505014043 | 22 | 316 | 4.8 | 9.7 | 0.00 | 0.00 | 0.00 | 31 | 1007.3 |
| 20260505013044 | 22 | 1 | 8.0 | 17.7 | 0.00 | 0.00 | 0.00 | 31 | 1007.3 |
| 20260505012024 | 22 | 351 | 8.0 | 12.9 | 0.00 | 0.00 | 0.00 | 32 | 1007.4 |
| 20260505011022 | 22 | 9 | 12.9 | 20.9 | 0.00 | 0.00 | 0.00 | 30 | 1007.3 |
| 20260505010022 | 22 | 1 | 11.3 | 17.7 | 0.00 | 0.00 | 0.00 | 30 | 1007.3 |
| 20260505005018 | 22 | 356 | 9.7 | 14.5 | 0.00 | 0.00 | 0.00 | 32 | 1007.3 |
| 20260505004016 | 23 | 11 | 9.7 | 22.5 | 0.00 | 0.00 | 0.00 | 30 | 1007.3 |
| 20260505003031 | 23 | 14 | 8.0 | 14.5 | 0.00 | 0.00 | 0.00 | 30 | 1007.6 |
| 20260505002030 | 23 | 301 | 4.8 | 8.0 | 0.00 | 0.00 | 0.00 | 29 | 1007.5 |
| 20260505001029 | 23 | 293 | 3.2 | 8.0 | 0.00 | 0.00 | 0.00 | 29 | 1007.6 |
| 20260505000016 | 23 | 346 | 6.4 | 14.5 | 0.00 | 0.00 | 0.00 | 31 | 1007.7 |
| 20260504235028 | 23 | 354 | 6.4 | 16.1 | 0.00 | 0.00 | 0.00 | 29 | 1007.6 |
| 20260504234027 | 23 | 0 | 6.4 | 17.7 | 0.00 | 0.00 | 0.00 | 30 | 1007.7 |
| 20260504233029 | 23 | 355 | 8.0 | 22.5 | 0.00 | 0.00 | 0.00 | 31 | 1007.7 |
| 20260504232048 | 23 | 324 | 6.4 | 11.3 | 0.00 | 0.00 | 0.00 | 31 | 1007.7 |
| 20260504231027 | 23 | 334 | 6.4 | 14.5 | 0.00 | 0.00 | 0.00 | 31 | 1007.7 |
| 20260504230047 | 23 | 356 | 8.0 | 20.9 | 0.00 | 0.00 | 0.00 | 31 | 1007.7 |
| 20260504225025 | 24 | 9 | 4.8 | 12.9 | 0.00 | 0.00 | 0.00 | 31 | 1007.7 |
| 20260504224024 | 23 | 339 | 6.4 | 14.5 | 0.00 | 0.00 | 0.00 | 32 | 1007.7 |
| 20260504223022 | 23 | 5 | 8.0 | 17.7 | 0.00 | 0.00 | 0.00 | 31 | 1007.7 |
| 20260504222044 | 23 | 252 | 4.8 | 17.7 | 0.00 | 0.00 | 0.00 | 36 | 1007.7 |
| 20260504221023 | 23 | 351 | 6.4 | 16.1 | 0.00 | 0.00 | 0.00 | 32 | 1007.7 |
| 20260504220023 | 23 | 298 | 6.4 | 16.1 | 0.00 | 0.00 | 0.00 | 36 | 1008.0 |
| 20260504215043 | 23 | 2 | 9.7 | 20.9 | 0.00 | 0.00 | 0.00 | 35 | 1007.9 |
| 20260504214023 | 23 | 13 | 4.8 | 11.3 | 0.00 | 0.00 | 0.00 | 32 | 1008.1 |
| 20260504213022 | 23 | 106 | 3.2 | 14.5 | 0.00 | 0.00 | 0.00 | 34 | 1008.1 |
| 20260504212023 | 23 | 350 | 8.0 | 16.1 | 0.00 | 0.00 | 0.00 | 32 | 1008.1 |
| 20260504211042 | 23 | 11 | 6.4 | 16.1 | 0.00 | 0.00 | 0.00 | 32 | 1008.1 |
| 20260504210024 | 23 | 29 | 8.0 | 20.9 | 0.00 | 0.00 | 0.00 | 32 | 1008.1 |
| 20260504205044 | 23 | 310 | 4.8 | 12.9 | 0.00 | 0.00 | 0.00 | 34 | 1008.2 |
| 20260504204043 | 23 | 10 | 4.8 | 8.0 | 0.00 | 0.00 | 0.00 | 31 | 1008.4 |
| 20260504203023 | 23 | 355 | 6.4 | 12.9 | 0.00 | 0.00 | 0.00 | 33 | 1008.4 |
| 20260504202030 | 23 | 334 | 6.4 | 16.1 | 0.00 | 0.00 | 0.00 | 33 | 1008.4 |
| 20260504201047 | 23 | 1 | 6.4 | 12.9 | 0.00 | 0.00 | 0.00 | 35 | 1008.4 |
| 20260504200027 | 23 | 44 | 3.2 | 9.7 | 0.00 | 0.00 | 0.00 | 33 | 1008.4 |
| 20260504195047 | 23 | 10 | 4.8 | 12.9 | 0.00 | 0.00 | 0.00 | 37 | 1008.4 |
| 20260504194045 | 23 | 266 | 4.8 | 11.3 | 0.00 | 0.00 | 0.00 | 35 | 1008.4 |
| 20260504193046 | 22 | 52 | 4.8 | 11.3 | 0.00 | 0.00 | 0.00 | 36 | 1008.4 |
| 20260504192027 | 22 | 209 | 1.6 | 4.8 | 0.00 | 0.00 | 0.00 | 37 | 1008.4 |
| 20260504191027 | 21 | 34 | 3.2 | 11.3 | 0.00 | 0.00 | 0.00 | 38 | 1008.4 |
| 20260504190025 | 21 | 5 | 6.4 | 12.9 | 0.00 | 0.00 | 0.00 | 35 | 1008.4 |
| 20260504185025 | 21 | 35 | 6.4 | 14.5 | 0.00 | 0.00 | 0.00 | 37 | 1008.6 |
| 20260504184145 | 21 | 20 | 4.8 | 11.3 | 0.00 | 0.00 | 0.00 | 37 | 1008.6 |
| 20260504183023 | 21 | 45 | 4.8 | 11.3 | 0.00 | 0.00 | 0.00 | 39 | 1008.5 |
| 20260504182023 | 21 | 36 | 6.4 | 11.3 | 0.00 | 0.00 | 0.00 | 40 | 1008.6 |
| 20260504181022 | 20 | 64 | 3.2 | 9.7 | 0.00 | 0.00 | 0.00 | 40 | 1008.7 |
| 20260504180017 | 20 | 39 | 4.8 | 14.5 | 0.00 | 0.00 | 0.00 | 40 | 1008.8 |
| 20260504175016 | 20 | 46 | 4.8 | 12.9 | 0.00 | 0.00 | 0.00 | 41 | 1008.8 |
| 20260504174016 | 19 | 51 | 6.4 | 12.9 | 0.00 | 0.00 | 0.00 | 41 | 1008.8 |
| 20260504173050 | 18 | 44 | 6.4 | 17.7 | 0.00 | 0.00 | 0.00 | 42 | 1008.5 |
| 20260504172049 | 18 | 61 | 6.4 | 16.1 | 0.00 | 0.00 | 0.00 | 42 | 1008.5 |
| 20260504171031 | 18 | 35 | 6.4 | 14.5 | 0.00 | 0.00 | 0.00 | 42 | 1008.6 |
| 20260504151027 | 14 | 90 | 1.6 | 8.0 | 0.00 | 0.00 | 0.00 | 56 | 1008.8 |
| 20260504141047 | 11 | 25 | 4.8 | 8.0 | 0.00 | 0.00 | 0.00 | 60 | 1008.4 |